Location: Hackberry
(29.5783°N, 96.8797°W)
Time: 13:57:06
(UTC+00:00)

Transit 2A - Pass Details

Date: 09 November 2024
Orbit: 592 x 956 km, 66.7° (Epoch: 02 December)

Event Time Altitude Azimuth Distance (km) Brightness Sun altitude
Rises 10:52:22 0° 198° (SSW) 3,503 9.3 -25.2°
Reaches altitude 10° 10:54:49 10° 197° (SSW) 2,602 8.6 -24.7°
Maximum altitude 11:00:57 75° 112° (ESE) 982 6.6 -23.4°
Drops below altitude 10° 11:07:17 10° 28° (NNE) 2,686 9.0 -22.0°
Sets 11:09:51 0° 27° (NNE) 3,624 9.7 -21.4°
